| time (UTC) | temp F | wind direction | speed MPH | gust MPH | rain 1hr in | rain 24hr in | rain mn in | humidity % | barometer mb |
| 20260505100739 | 63 | 88 | 1.0 | 2.0 | 0.00 | 0.00 | 0.00 | 75 | 1023.4 |
| 20260505093759 | 64 | 103 | 0.0 | 1.0 | 0.00 | 0.00 | 0.00 | 71 | 1023.3 |
| 20260505090738 | 65 | 81 | 1.0 | 4.0 | 0.00 | 0.00 | 0.00 | 66 | 1023.0 |
| 20260505083731 | 65 | 132 | 2.0 | 5.0 | 0.00 | 0.00 | 0.00 | 64 | 1022.9 |
| 20260505080732 | 66 | 147 | 2.0 | 5.0 | 0.00 | 0.00 | 0.00 | 67 | 1023.0 |
| 20260505073731 | 66 | 170 | 2.0 | 8.0 | 0.00 | 0.00 | 0.00 | 67 | 1022.8 |
| 20260505070730 | 67 | 206 | 2.0 | 8.0 | 0.00 | 0.00 | 0.00 | 64 | 1022.5 |
| 20260505063731 | 66 | 150 | 2.0 | 8.0 | 0.00 | 0.00 | 0.00 | 65 | 1022.3 |
| 20260505060752 | 66 | 113 | 4.0 | 10.0 | 0.00 | 0.00 | 0.00 | 66 | 1022.3 |
| 20260505053732 | 67 | 266 | 4.0 | 11.0 | 0.00 | 0.00 | 0.00 | 66 | 1022.2 |
| 20260505050810 | 67 | 142 | 5.0 | 10.0 | 0.00 | 0.00 | 0.00 | 63 | 1022.1 |
| 20260505040731 | 68 | 148 | 4.0 | 9.0 | 0.00 | 0.00 | 0.00 | 65 | 1022.0 |
| 20260505033733 | 69 | 127 | 3.0 | 11.0 | 0.00 | 0.00 | 0.00 | 63 | 1021.9 |
| 20260505030733 | 69 | 257 | 1.0 | 7.0 | 0.00 | 0.00 | 0.00 | 65 | 1021.6 |
| 20260505023734 | 69 | 169 | 2.0 | 7.0 | 0.00 | 0.00 | 0.00 | 64 | 1021.5 |
| 20260505020732 | 70 | 118 | 2.0 | 6.0 | 0.00 | 0.00 | 0.00 | 60 | 1021.6 |
| 20260505013734 | 68 | 235 | 1.0 | 5.0 | 0.00 | 0.00 | 0.00 | 60 | 1021.4 |
| 20260505010735 | 68 | 144 | 3.0 | 6.0 | 0.00 | 0.00 | 0.00 | 64 | 1021.4 |
| 20260505003735 | 66 | 133 | 3.0 | 7.0 | 0.00 | 0.00 | 0.00 | 65 | 1021.2 |
| 20260505000737 | 65 | 205 | 3.0 | 6.0 | 0.00 | 0.00 | 0.00 | 60 | 1020.9 |
| 20260504233737 | 65 | 73 | 4.0 | 7.0 | 0.00 | 0.00 | 0.00 | 59 | 1020.5 |
| 20260504230800 | 65 | 63 | 2.0 | 7.0 | 0.00 | 0.00 | 0.00 | 58 | 1020.2 |
| 20260504223756 | 63 | 14 | 2.0 | 5.0 | 0.00 | 0.00 | 0.00 | 61 | 1019.8 |
| 20260504220749 | 61 | 8 | 3.0 | 4.0 | 0.00 | 0.00 | 0.00 | 65 | 1019.4 |
| 20260504213729 | 57 | 288 | 1.0 | 2.0 | 0.00 | 0.00 | 0.00 | 77 | 1018.9 |
| 20260504210731 | 54 | 302 | 1.0 | 3.0 | 0.00 | 0.00 | 0.00 | 80 | 1018.3 |
| 20260504203732 | 54 | 311 | 0.0 | 2.0 | 0.00 | 0.00 | 0.00 | 78 | 1017.7 |
| 20260504200733 | 53 | 310 | 0.0 | 3.0 | 0.00 | 0.24 | 0.00 | 77 | 1016.8 |
| 20260504193729 | 54 | 258 | 1.0 | 4.0 | 0.00 | 0.24 | 0.00 | 76 | 1016.0 |
| 20260504190731 | 55 | 278 | 2.0 | 5.0 | 0.00 | 0.67 | 0.00 | 72 | 1015.2 |
| 20260504183732 | 56 | 302 | 1.0 | 10.0 | 0.00 | 0.67 | 0.00 | 71 | 1014.3 |
| 20260504180733 | 56 | 302 | 4.0 | 11.0 | 0.00 | 0.67 | 0.00 | 70 | 1013.7 |
| 20260504173733 | 57 | 242 | 7.0 | 15.0 | 0.00 | 0.67 | 0.00 | 69 | 1013.4 |
| 20260504170734 | 57 | 278 | 7.0 | 14.0 | 0.00 | 0.71 | 0.00 | 69 | 1012.6 |
| 20260504150734 | 58 | 167 | 6.0 | 18.0 | 0.00 | 4.41 | 0.00 | 67 | 1011.0 |
| 20260504140737 | 59 | 262 | 7.0 | 19.0 | 0.00 | 5.94 | 0.88 | 68 | 1010.5 |
| 20260504130734 | 60 | 49 | 8.0 | 17.0 | 0.00 | 6.81 | 0.88 | 68 | 1010.2 |